Location: Unspecified
(36.5600°N, 136.6600°E)
Time: 19:18:42
(UTC+09:00)

BlueWalker 3 - Pass Details

Date: 17 June 2024
Orbit: 480 x 491 km, 53.2° (Epoch: 19 July)

Event Time Altitude Azimuth Distance (km) Brightness Sun altitude
Rises 03:07:24 0° 326° (NW) 2,538 5.7 -14.7°
Reaches altitude 10° 03:10:30 10° 354° (N) 1,658 5.1 -14.3°
Maximum altitude 03:12:27 14° 25° (NNE) 1,447 5.3 -14.0°
Drops below altitude 10° 03:14:23 10° 57° (ENE) 1,658 5.9 -13.7°
Sets 03:17:29 0° 84° (E) 2,537 6.4 -13.3°
